Retour au catalogue

STARLINK-5591

ActifCommunicationsVLEO
NORAD 55771·PAYLOAD·🇺🇸 United States

Lancé Mar 3, 2023 depuis Vandenberg Space Force Base

Loading…

Prochains Passages (prochaines 24 heures)

TLE

FraisSource: CelesTrak SupGP

Époque: Sep 15, 2026, 01:40 UTC

1 55771C 23028AG  26258.06993056  .00010109  00000+0  84715-3 0  2587
2 55771  69.9998 106.9440 0002510 275.9343 345.4638 14.98327325    10

Suivez STARLINK-5591 en temps réel avec AllMySat

Download on the App Store